Weather in Eniseysk

Russia / Krasnoyarsk Krai     58°27′11″N   92°10′25″E
temp.,
°C
wind,
m/s
gust,
m/s
humid.,
%
clouds,
%
prec.,
mm/h
press.,
hPa
HPBL,
m
23 april, fri
fri2301:00−5nw119932 0.1 104410
04:00−6n119954 0.0 104417
07:00−4ne019337 0.0 104686
10:00+3ese007922 0.0 1046394
13:00+6wnw116532 0.0 10451041
16:00+7nnw225527 0.0 10431361
19:00+4nw24818 0.0 104380
22:00−2nnw119520 0.0 104322
24 april, sat
sat2401:00−3nne11979 0.0 104231
04:00−3ne119551 0.0 104023
07:000ne1481100 0.0 1039104
10:00+5ene2464100 0.0 1037575
13:00+8e2454100 0.0 10341565
16:00+7e1363100 0.0 1031844
19:00+3ese1191100 0.2 103110
22:00+1n0097100 0.0 103010
25 april, sun
sun2501:000nw1198100 0.0 102935
04:00+1wnw25100100 0.9 1027339
07:00+1wnw3899100 3.1 1027312
10:00+2wnw3799100 0.8 1027296
13:00+5wnw4672100 1.0 10261064
16:00+6nw4769100 0.0 10261379
19:00+4wnw1187100 0.0 102611
22:00+3wnw2892100 0.0 1027250
26 april, mon
mon2601:00+2wnw3897100 0.0 1027547
04:00+2wnw3898100 0.0 1027615
07:00+1wnw3798100 0.2 1028500
10:00+2wnw3695100 0.1 1029645
13:00+3wnw3589100 0.2 1029644
16:00+3wnw2583100 0.1 1029613
19:00+3wnw1187100 0.1 102914
22:00+1s11939 0.0 102810
27 april, tue
tue2701:000se119557 0.0 102714
04:000ese2595100 0.0 1026129
07:00+2se3990100 0.0 1024303
10:00+5se4878100 0.0 1021493
13:00+9se5765100 0.0 10181061
16:00+9se4769100 0.2 10161294
19:00+5sw3596100 2.0 1016735
22:00+3wsw3797100 0.6 1018653